Overview Statistics Trail Chart Weather Telemetry Raw packets
 

This is the latest recevied weather packets stored in our database for station/object KB4MLW-13. If no packets are shown the sender has not sent any weather packets the latest 10 day(s).

<< 59 60 61 62 63 64 65 >>
Time Temp. Humidity Pressure Rain* Wind** Luminosity Snow
1788283648 33.33° C 62% 1002.5 hPa 0 mm - - -
1788283594 33.33° C 62% 1002.3 hPa 0 mm - - -
1788283528 33.33° C 63% 1002.5 hPa 0 mm - - -
1788283468 33.33° C 61% 1002.5 hPa 0 mm - - -
1788283408 33.33° C 64% 1002.5 hPa 0 mm - - -
1788283319 33.33° C 62% 1002.5 hPa 0 mm - - -
1788283258 33.33° C 64% 1002.4 hPa 0 mm - - -
1788283198 33.33° C 64% 1002.5 hPa 0 mm - - -
1788283138 33.33° C 64% 1002.3 hPa 0 mm - - -
1788283078 33.33° C 63% 1002.6 hPa 0 mm - - -
1788282989 33.33° C 63% 1002.6 hPa 0 mm - - -
1788282929 33.33° C 62% 1002.4 hPa 0 mm - - -
1788282868 33.33° C 63% 1002.6 hPa 0 mm - - -
1788282808 32.78° C 66% 1002.5 hPa 0 mm - - -
1788282748 32.78° C 67% 1002.5 hPa 0 mm - - -
1788282662 32.78° C 64% 1002.7 hPa 0 mm - - -
1788282598 32.78° C 65% 1002.6 hPa 0 mm - - -
1788282538 32.78° C 63% 1002.6 hPa 0 mm - - -
1788282478 32.78° C 65% 1002.5 hPa 0 mm - - -
1788282388 32.78° C 66% 1002.7 hPa 0 mm - - -
1788282328 32.78° C 64% 1002.7 hPa 0 mm - - -
1788282268 32.78° C 65% 1002.6 hPa 0 mm - - -
1788282208 33.33° C 63% 1002.7 hPa 0 mm - - -
1788282119 33.33° C 64% 1002.6 hPa 0 mm - - -
1788282029 33.33° C 67% 1002.7 hPa 0 mm - - -

* Rain latest hour (hover to see other rain measurements)
** Current wind speed in m/s (hover to see current wind gust speed)